Flag for Australia Weather past 2 weeks in Adelaide, South Australia, Australia

Now
59 °F

Passing clouds.


Feels Like: 56 °F
Forecast: 45 / 60 °F
Wind: 14 mph from Southwest

Location: Adelaide Airport

Current Time: Aug 23, 2014 at 5:38:29 PM

Latest Report: Aug 23, 2014 at 4:30 PM


Visibility: N/A

Pressure: 30.27 "Hg

Humidity: 68%

Dew point: 48 °F

Location of AdelaideLocation

Historic Weather in Adelaide — Graph

°F

Adelaide temperature yesterday

Maximum temperature yesterday: 70 °F (at 1:00 PM)
Minimum temperature yesterday: 52 °F (at 6:00 AM)
Average temperature yesterday: 60 °F

Past Weeks' High & Low Weather Summary

 TemperatureHumidityPressure
High70 °F (Aug 22, 1:00 PM)100% (Aug 10, 7:30 AM)30.66 "Hg (Aug 10, 7:30 AM)
Low37 °F (Aug 12, 2:00 AM)26% (Aug 22, 3:00 PM)30.09 "Hg (Aug 16, 12:30 PM)
Average52 °F68%30.33 "Hg
* Reported Aug 8 3:30 PM — Aug 23 4:00 PM, Adelaide, Weather by CustomWeather, © 2014

Note: Actual official high and low records may vary slightly from our data, if they occured in-between our weather recording intervals... More about our weather records

Advertising

Adelaide weather history for previous 24 hours

 ConditionsComfort  
Time TempWeatherWind HumidityBarometerVisibility
4:00 PM
Aug 23
59 °FPartly sunny.15 mph72%30.27 "HgN/A
3:30 PM59 °FScattered clouds.13 mph68%30.27 "HgN/A
3:00 PM59 °FPartly sunny.16 mph68%30.27 "HgN/A
2:30 PM59 °FPassing clouds.16 mph68%30.24 "HgN/A
2:00 PM59 °FPassing clouds.14 mph68%30.24 "HgN/A
1:30 PM61 °FPassing clouds.13 mph68%30.24 "HgN/A
1:00 PM63 °FPassing clouds.14 mph64%30.24 "HgN/A
12:30 PM61 °FScattered clouds.15 mph72%30.24 "HgN/A
12:00 PM59 °FPartly sunny.14 mph77%30.24 "HgN/A
11:30 AM57 °FPartly sunny.13 mph82%30.24 "HgN/A
11:00 AM57 °FPartly sunny.12 mph82%30.24 "HgN/A
10:30 AM57 °FScattered showers. Broken clouds.15 mph77%30.24 "HgN/A
10:00 AM59 °FPartly sunny.17 mph63%30.24 "HgN/A
9:30 AM59 °FPartly sunny.15 mph55%30.21 "HgN/A
8:30 AM59 °FSunny.15 mph48%30.18 "Hg10 mi
8:00 AM59 °FSunny.15 mph48%30.18 "Hg10 mi
7:30 AM59 °FSunny.14 mph48%30.18 "Hg10 mi
7:00 AM59 °FSunny.16 mph45%30.15 "Hg10 mi
6:30 AM57 °FSunny.14 mph51%30.15 "Hg10 mi
6:00 AM61 °FClear.17 mph42%30.15 "Hg10 mi
5:30 AM61 °FClear.17 mph39%30.12 "Hg10 mi
5:00 AM61 °FClear.16 mph39%30.12 "Hg10 mi
4:30 AM61 °FClear.17 mph42%30.12 "Hg10 mi
4:00 AM61 °FClear.16 mph39%30.12 "Hg10 mi
3:30 AM59 °FClear.16 mph45%30.12 "Hg10 mi
2:30 AM59 °FClear.15 mph42%30.15 "Hg10 mi
2:00 AM59 °FClear.16 mph42%30.18 "Hg10 mi
1:30 AM59 °FClear.14 mph42%30.18 "Hg10 mi
1:00 AM57 °FClear.14 mph44%30.18 "Hg10 mi
12:30 AM57 °FClear.10 mph48%30.18 "Hg10 mi
12:00 AM55 °FClear.9 mph51%30.18 "Hg10 mi
11:30 PM
Aug 22
55 °FClear.9 mph47%30.18 "Hg10 mi
11:00 PM57 °FClear.12 mph44%30.18 "Hg10 mi
10:30 PM59 °FClear.13 mph39%30.18 "Hg10 mi
10:00 PM57 °FClear.10 mph41%30.18 "Hg10 mi
9:30 PM57 °FClear.10 mph41%30.18 "Hg10 mi
9:00 PM57 °FClear.12 mph39%30.21 "Hg10 mi
8:30 PM54 °FClear.9 mph51%30.21 "Hg10 mi
8:00 PM57 °FClear.10 mph44%30.18 "Hg10 mi
7:30 PM59 °FClear.10 mph42%30.18 "Hg10 mi
7:00 PM59 °FClear.9 mph42%30.18 "Hg10 mi
6:30 PM59 °FClear.10 mph42%30.18 "Hg10 mi
6:00 PM63 °FClear.13 mph37%30.18 "Hg10 mi
5:30 PM64 °FClear.14 mph37%30.18 "Hg10 mi
5:00 PM66 °FSunny.14 mph32%30.18 "Hg10 mi
Weather by CustomWeather, © 2014

See weather overviewHow to use our weather pages